This demonstration page uses our WeatherBlox Daily Observations layout. Learn more.

41.55636, -103.73856

Hourly Observations for July 24, 2019

Temp ( °F °C ) Dew Point ( °F °C ) Humidity (%) Winds ( mph kmh ) Pressure ( in mb ) Visibility ( mi km ) Precip ( " mm )
12:53 am 00:53 Clear 66 18.9 61 16.1 84 84 ESE 12 19 30 1016 10 16.09344 0 0
1:53 am 01:53 Clear 64 17.8 60 15.6 87 87 ESE 10 17 30 1016 10 16.09344 0 0
2:53 am 02:53 Clear 63 17.2 59 15 87 87 E 10 17 29.97 1015 10 16.09344 0 0
3:53 am 03:53 Clear 61 16.1 59 15 93 93 E 8 13 29.97 1015 10 16.09344 0 0
4:53 am 04:53 Clear 60 15.6 58 14.4 93 93 ESE 8 13 29.97 1015 10 16.09344 0 0
5:53 am 05:53 Sunny 59 15 58 14.4 96 96 ESE 7 11 29.97 1015 7 11.265408 0 0
6:53 am 06:53 Sunny 62 16.7 59 15 90 90 ESE 10 17 29.97 1015 10 16.09344 0 0
7:53 am 07:53 Sunny 65 18.3 59 15 81 81 ESE 13 20 30 1016 10 16.09344 0 0
8:53 am 08:53 Sunny 70 21.1 60 15.6 71 71 ESE 10 17 29.97 1015 10 16.09344 0 0
9:53 am 09:53 Sunny 74 23.3 62 16.7 67 67 ESE 10 17 29.97 1015 10 16.09344 0 0
10:53 am 10:53 Sunny 79 26.1 64 17.8 60 60 ESE 10 17 29.94 1014 10 16.09344 0 0
11:53 am 11:53 Sunny 85 29.4 65 18.3 51 51 E 10 17 29.91 1013 10 16.09344 0 0
12:53 pm 12:53 Sunny 89 31.7 67 19.4 48 48 E 13 20 29.88 1012 10 16.09344 0 0
1:53 pm 13:53 Sunny 93 33.9 67 19.4 42 42 E 13 20 29.85 1011 10 16.09344 0 0
2:53 pm 14:53 Sunny 98 36.7 55 12.8 24 24 ESE 13 20 29.83 1010 10 16.09344 0 0
3:53 pm 15:53 Sunny 97 36.1 55 12.8 24 24 ESE 10 17 29.83 1010 10 16.09344 0 0
4:53 pm 16:53 Sunny 95 35 54 12.2 25 25 SSE 9 15 29.8 1009 10 16.09344 0 0
5:53 pm 17:53 Mostly Cloudy 88 31.1 56 13.3 34 34 SW 13 20 29.83 1010 10 16.09344 0 0
6:09 pm 18:09 Mostly Cloudy with Light Rain 87 30.6 56 13.3 35 35 SSW 9 15 29.65 1004 10 16.09344 0.001 0.001
6:53 pm 18:53 Partly Cloudy 87 30.6 53 11.7 31 31 W 7 11 29.83 1010 10 16.09344 0.001 0.001
7:53 pm 19:53 Mostly Sunny 82 27.8 57 13.9 42 42 NNW 13 20 29.85 1011 10 16.09344 0.001 0.001
8:53 pm 20:53 Partly Cloudy 76 24.4 60 15.6 58 58 W 7 11 29.88 1012 10 16.09344 0.001 0.001
9:53 pm 21:53 Clear 76 24.4 59 15 56 56 ESE 12 19 29.83 1010 10 16.09344 0 0
10:53 pm 22:53 Mostly Clear 73 22.8 61 16.1 66 66 E 7 11 29.85 1011 10 16.09344 0 0
11:53 pm 23:53 Clear 72 22.2 62 16.7 71 71 ESE 6 9 29.85 1011 10 16.09344 0 0

Powered by AerisWeather